Anoka County, MN

4:21 AM CST on December 09, 2019 (GMT -0600)
Anoka County / Blaine Airport

Weather History for KANE - August, 2019

Change the Weather History Date:

Saturday, August 31, 2019

  Actual Average Record
Temperature  
Mean Temperature 63 °F -  
Max Temperature 71 °F 76 °F 87 °F (2013)
Min Temperature 55 °F 56 °F 48 °F (2003)
Degree Days  
Heating Degree Days 2    
Growing Degree Days 13 (Base 50)    
Moisture  
Dew Point 53 °F    
Average Humidity 78    
Maximum Humidity 94    
Minimum Humidity 49    
Precipitation  
Precipitation 0.00 in - - ()
Sea Level Pressure  
Sea Level Pressure 30.24 in    
Wind  
Wind Speed 2 mph (SSE)    
Max Wind Speed 12 mph    
Max Gust Speed -    
Visibility 10 miles    
Events      
Averages and records for this station are not official NWS values.
T = Trace of Precipitation, MM = Missing Value Source: NWS Daily Summary

Daily Weather History Graph

Daily Weather History Graph

Search for Another Location

Airport or City:

Astronomy

Aug. 31, 2019 Rise Set
Actual Time 6:33 AM CDT 7:52 PM CDT
Civil Twilight 6:02 AM CDT 8:22 PM CDT
Nautical Twilight 5:25 AM CDT 8:59 PM CDT
Astronomical Twilight 4:46 AM CDT 9:38 PM CDT
Moon 7:51 AM CDT (8/31) 9:02 PM CDT (8/31)
Length of Visible Light 14h 19m
Length of Day
13h 19m
New Moon, 3% of the Moon is Illuminated
Aug 31
New Moon
Sep 5
First Quarter
Sep 13
Full
Sep 21
Last Quarter
Sep 28
New

Hourly Weather History & Observations

Time (CDT) Temp. Dew Point Humidity Pressure Visibility Wind Dir Wind Speed Gust Speed Precip Events Conditions
12:15 AM 57.2 °F 51.8 °F 82% 30.24 in 10.0 mi Calm Calm - N/A   Unknown
12:20 AM 57.2 °F 53.6 °F 88% 30.25 in 10.0 mi Calm Calm - N/A   Unknown
12:37 AM 59.0 °F 51.8 °F 77% 30.25 in 10.0 mi Calm Calm - N/A   Unknown
12:55 AM 57.2 °F 51.8 °F 82% 30.26 in 10.0 mi Calm Calm - N/A   Unknown
1:16 AM 57.2 °F 51.8 °F 82% 30.26 in 10.0 mi Calm Calm - N/A   Unknown
1:36 AM 55.4 °F 51.8 °F 88% 30.27 in 10.0 mi Calm Calm - N/A   Unknown
1:59 AM 57.2 °F 51.8 °F 82% 30.27 in 10.0 mi Calm Calm - N/A   Unknown
2:17 AM 55.4 °F 51.8 °F 88% 30.27 in 10.0 mi Calm Calm - N/A   Unknown
2:36 AM 55.4 °F 53.6 °F 94% 30.27 in 10.0 mi Calm Calm - N/A   Unknown
2:56 AM 55.4 °F 53.6 °F 94% 30.26 in 10.0 mi Calm Calm - N/A   Unknown
3:15 AM 55.4 °F 53.6 °F 94% 30.27 in 10.0 mi Calm Calm - N/A   Unknown
3:19 AM 55.4 °F 53.6 °F 94% 30.27 in 10.0 mi Calm Calm - N/A   Unknown
3:38 AM 55.4 °F 53.6 °F 94% 30.27 in 10.0 mi Calm Calm - N/A   Unknown
3:55 AM 55.4 °F 53.6 °F 94% 30.27 in 10.0 mi Calm Calm - N/A   Unknown
4:16 AM 55.4 °F 53.6 °F 94% 30.26 in 10.0 mi Calm Calm - N/A   Unknown
4:36 AM 57.2 °F 53.6 °F 88% 30.26 in 10.0 mi Calm Calm - N/A   Unknown
4:59 AM 57.2 °F 55.4 °F 94% 30.26 in 10.0 mi Calm Calm - N/A   Unknown
5:16 AM 57.2 °F 53.6 °F 88% 30.26 in 10.0 mi East 3.5 mph - N/A   Unknown
5:36 AM 55.4 °F 53.6 °F 94% 30.26 in 10.0 mi Calm Calm - N/A   Unknown
5:55 AM 57.2 °F 53.6 °F 88% 30.26 in 10.0 mi Calm Calm - N/A   Unknown
6:15 AM 57.2 °F 53.6 °F 88% 30.26 in 10.0 mi Calm Calm - N/A   Unknown
6:19 AM 57.2 °F 53.6 °F 88% 30.26 in 10.0 mi Calm Calm - N/A   Unknown
6:38 AM 57.2 °F 55.4 °F 94% 30.25 in 10.0 mi SE 4.6 mph - N/A   Unknown
6:55 AM 59.0 °F 53.6 °F 82% 30.25 in 10.0 mi SE 4.6 mph - N/A   Unknown
6:59 AM 59.0 °F 53.6 °F 82% 30.25 in 10.0 mi ESE 5.8 mph - N/A   Overcast
7:45 AM 59.0 °F 53.6 °F 82% 30.26 in 10.0 mi ESE 4.6 mph - N/A   Overcast
8:45 AM 60.8 °F 53.6 °F 77% 30.26 in 10.0 mi SE 4.6 mph - N/A   Overcast
9:45 AM 62.6 °F 53.6 °F 72% 30.27 in 10.0 mi SE 4.6 mph - N/A   Overcast
10:46 AM 66.2 °F 53.6 °F 64% 30.28 in 10.0 mi South 11.5 mph - N/A   Overcast
11:59 AM 69.8 °F 51.8 °F 53% 30.27 in 10.0 mi South 6.9 mph - N/A   Mostly Cloudy
12:45 PM 71.6 °F 51.8 °F 50% 30.26 in 10.0 mi South 6.9 mph - N/A   Mostly Cloudy
1:45 PM 69.8 °F 50.0 °F 49% 30.26 in 10.0 mi SSE 9.2 mph - N/A   Mostly Cloudy
2:46 PM 71.6 °F 51.8 °F 50% 30.24 in 10.0 mi SSE 8.1 mph - N/A   Mostly Cloudy
3:45 PM 71.6 °F 53.6 °F 53% 30.23 in 10.0 mi SSE 6.9 mph - N/A   Mostly Cloudy
5:47 PM 69.8 °F 53.6 °F 56% 30.21 in 10.0 mi Variable 4.6 mph - N/A   Overcast
6:45 PM 69.8 °F 51.8 °F 53% 30.20 in 10.0 mi Variable 3.5 mph - N/A   Mostly Cloudy
7:45 PM 68.0 °F 53.6 °F 60% 30.19 in 10.0 mi ESE 5.8 mph - N/A   Overcast
8:45 PM 66.2 °F 55.4 °F 68% 30.20 in 10.0 mi SSE 4.6 mph - N/A   Overcast
9:45 PM 66.2 °F 55.4 °F 68% 30.20 in 10.0 mi SSW 3.5 mph - N/A   Overcast
10:16 PM 66.2 °F 55.4 °F 68% 30.20 in 10.0 mi Calm Calm - N/A   Unknown
10:35 PM 66.2 °F 55.4 °F 68% 30.20 in 10.0 mi SSE 3.5 mph - N/A   Unknown
10:39 PM 64.4 °F 55.4 °F 73% 30.20 in 10.0 mi SSE 3.5 mph - N/A   Unknown
10:57 PM 62.6 °F 55.4 °F 77% 30.19 in 10.0 mi South 4.6 mph - N/A   Unknown
11:15 PM 62.6 °F 53.6 °F 72% 30.19 in 10.0 mi South 3.5 mph - N/A   Unknown
11:35 PM 62.6 °F 53.6 °F 72% 30.19 in 10.0 mi Calm Calm - N/A   Unknown
11:56 PM 60.8 °F 53.6 °F 77% 30.19 in 10.0 mi SSE 3.5 mph - N/A   Unknown